| time (UTC) | temp F | wind direction | speed MPH | gust MPH | rain 1hr in | rain 24hr in | rain mn in | humidity % | barometer mb |
| 20260905004509 | 84 | 220 | 0.0 | 0.0 | 0.00 | 0.00 | 0.00 | 91 | 1013.1 |
| 20260905004004 | 84 | 220 | 0.0 | 0.0 | 0.00 | 0.00 | 0.00 | 90 | 1012.9 |
| 20260905003500 | 85 | 220 | 0.0 | 0.0 | 0.00 | 0.00 | 0.00 | 89 | 1012.8 |
| 20260905002955 | 85 | 220 | 0.0 | 0.0 | 0.00 | 0.00 | 0.00 | 88 | 1012.8 |
| 20260905002450 | 86 | 220 | 0.0 | 0.0 | 0.00 | 0.00 | 0.00 | 87 | 1012.9 |
| 20260905001949 | 86 | 219 | 0.0 | 0.0 | 0.00 | 0.00 | 0.00 | 86 | 1012.9 |
| 20260905001444 | 87 | 219 | 0.0 | 0.0 | 0.00 | 0.00 | 0.00 | 85 | 1012.8 |
| 20260905000939 | 87 | 219 | 0.0 | 0.0 | 0.00 | 0.00 | 0.00 | 84 | 1012.8 |
| 20260905000435 | 88 | 219 | 0.0 | 0.0 | 0.00 | 0.00 | 0.00 | 82 | 1012.9 |
| 20260904235930 | 88 | 219 | 0.0 | 0.0 | 0.00 | 0.00 | 0.00 | 80 | 1013.0 |
| 20260904235425 | 89 | 219 | 0.0 | 0.0 | 0.00 | 0.00 | 0.00 | 77 | 1012.7 |
| 20260904234919 | 89 | 219 | 0.0 | 0.0 | 0.00 | 0.00 | 0.00 | 77 | 1012.8 |
| 20260904234414 | 90 | 219 | 0.0 | 0.0 | 0.00 | 0.00 | 0.00 | 74 | 1013.0 |
| 20260904233910 | 90 | 219 | 0.0 | 0.0 | 0.00 | 0.00 | 0.00 | 73 | 1012.9 |
| 20260904233405 | 91 | 219 | 0.0 | 0.0 | 0.00 | 0.00 | 0.00 | 72 | 1012.9 |
| 20260904232902 | 91 | 219 | 0.0 | 0.0 | 0.00 | 0.00 | 0.00 | 72 | 1012.9 |
| 20260904232358 | 91 | 219 | 0.0 | 0.0 | 0.00 | 0.00 | 0.00 | 73 | 1012.9 |
| 20260904231854 | 91 | 210 | 0.0 | 0.0 | 0.00 | 0.00 | 0.00 | 71 | 1012.7 |
| 20260904231349 | 92 | 220 | 0.0 | 0.0 | 0.00 | 0.00 | 0.00 | 71 | 1012.8 |
| 20260904230844 | 92 | 220 | 0.0 | 0.0 | 0.00 | 0.00 | 0.00 | 70 | 1013.1 |
| 20260904230342 | 92 | 220 | 0.0 | 0.0 | 0.00 | 0.00 | 0.00 | 69 | 1013.2 |
| 20260904225837 | 92 | 219 | 0.0 | 0.0 | 0.00 | 0.00 | 0.00 | 69 | 1013.0 |
| 20260904225335 | 92 | 219 | 0.0 | 0.0 | 0.00 | 0.00 | 0.00 | 68 | 1013.1 |
| 20260904224829 | 92 | 219 | 0.0 | 0.0 | 0.00 | 0.00 | 0.00 | 68 | 1013.0 |
| 20260904224325 | 92 | 222 | 0.0 | 0.0 | 0.00 | 0.00 | 0.00 | 67 | 1013.1 |
| 20260904223824 | 93 | 222 | 0.0 | 0.0 | 0.00 | 0.00 | 0.00 | 67 | 1013.0 |
| 20260904223319 | 93 | 222 | 0.0 | 0.0 | 0.00 | 0.00 | 0.00 | 66 | 1013.1 |
| 20260904222816 | 93 | 221 | 0.0 | 0.0 | 0.00 | 0.00 | 0.00 | 63 | 1013.1 |
| 20260904222316 | 93 | 216 | 0.0 | 0.0 | 0.00 | 0.00 | 0.00 | 65 | 1013.1 |
| 20260904221810 | 93 | 215 | 0.0 | 0.0 | 0.00 | 0.00 | 0.00 | 65 | 1013.0 |
| 20260904221310 | 94 | 219 | 0.0 | 0.0 | 0.00 | 0.00 | 0.00 | 63 | 1013.0 |
| 20260904220806 | 94 | 210 | 0.0 | 0.0 | 0.00 | 0.00 | 0.00 | 62 | 1013.0 |
| 20260904220305 | 94 | 224 | 0.0 | 0.0 | 0.00 | 0.00 | 0.00 | 64 | 1013.0 |
| 20260904215800 | 94 | 211 | 0.0 | 0.0 | 0.00 | 0.00 | 0.00 | 61 | 1013.1 |
| 20260904215255 | 94 | 217 | 1.0 | 1.0 | 0.00 | 0.00 | 0.00 | 62 | 1013.0 |
| 20260904214751 | 94 | 215 | 0.0 | 1.0 | 0.00 | 0.00 | 0.00 | 59 | 1013.0 |
| 20260904214247 | 94 | 213 | 0.0 | 1.0 | 0.00 | 0.00 | 0.00 | 61 | 1013.1 |
| 20260904213744 | 94 | 212 | 0.0 | 0.0 | 0.00 | 0.00 | 0.00 | 61 | 1013.0 |
| 20260904213241 | 95 | 229 | 2.0 | 2.0 | 0.00 | 0.00 | 0.00 | 62 | 1013.1 |
| 20260904212736 | 95 | 216 | 0.0 | 0.0 | 0.00 | 0.00 | 0.00 | 59 | 1013.2 |
| 20260904212236 | 95 | 231 | 0.0 | 0.0 | 0.00 | 0.00 | 0.00 | 61 | 1013.2 |
| 20260904211731 | 95 | 219 | 0.0 | 0.0 | 0.00 | 0.00 | 0.00 | 58 | 1013.3 |
| 20260904211226 | 95 | 217 | 1.0 | 1.0 | 0.00 | 0.00 | 0.00 | 58 | 1013.5 |
| 20260904210721 | 95 | 219 | 0.0 | 0.0 | 0.00 | 0.00 | 0.00 | 60 | 1013.5 |
| 20260904210216 | 96 | 236 | 2.0 | 2.0 | 0.00 | 0.00 | 0.00 | 59 | 1013.7 |
| 20260904205712 | 96 | 210 | 0.0 | 0.0 | 0.00 | 0.00 | 0.00 | 58 | 1013.9 |
| 20260904205208 | 97 | 212 | 0.0 | 0.0 | 0.00 | 0.00 | 0.00 | 59 | 1013.8 |
| 20260904204704 | 97 | 232 | 0.0 | 1.0 | 0.00 | 0.00 | 0.00 | 55 | 1013.9 |
| 20260904204200 | 98 | 227 | 0.0 | 0.0 | 0.00 | 0.00 | 0.00 | 55 | 1013.9 |
| 20260904203655 | 98 | 216 | 0.0 | 1.0 | 0.00 | 0.00 | 0.00 | 56 | 1014.1 |
| 20260904203152 | 98 | 236 | 2.0 | 2.0 | 0.00 | 0.00 | 0.00 | 55 | 1013.8 |
| 20260904202647 | 98 | 229 | 0.0 | 0.0 | 0.00 | 0.00 | 0.00 | 55 | 1013.9 |
| 20260904202144 | 98 | 221 | 1.0 | 1.0 | 0.00 | 0.00 | 0.00 | 55 | 1013.9 |
| 20260904201638 | 98 | 184 | 1.0 | 1.0 | 0.00 | 0.00 | 0.00 | 54 | 1013.9 |
| 20260904201133 | 98 | 230 | 2.0 | 2.0 | 0.00 | 0.00 | 0.00 | 58 | 1013.9 |
| 20260904200632 | 99 | 220 | 0.0 | 1.0 | 0.00 | 0.00 | 0.00 | 56 | 1014.1 |
| 20260904200127 | 98 | 211 | 1.0 | 1.0 | 0.00 | 0.00 | 0.00 | 58 | 1014.2 |
| 20260904195626 | 98 | 226 | 0.0 | 0.0 | 0.00 | 0.00 | 0.00 | 58 | 1014.2 |
| 20260904195126 | 97 | 224 | 0.0 | 1.0 | 0.00 | 0.00 | 0.00 | 60 | 1014.4 |
| 20260904194619 | 96 | 220 | 0.0 | 0.0 | 0.00 | 0.00 | 0.00 | 63 | 1014.4 |
| 20260904194115 | 97 | 221 | 1.0 | 1.0 | 0.00 | 0.00 | 0.00 | 59 | 1014.4 |
| 20260904193609 | 97 | 217 | 0.0 | 0.0 | 0.00 | 0.00 | 0.00 | 56 | 1014.7 |
| 20260904193106 | 97 | 238 | 1.0 | 1.0 | 0.00 | 0.00 | 0.00 | 56 | 1014.8 |
| 20260904192606 | 96 | 221 | 0.0 | 1.0 | 0.00 | 0.00 | 0.00 | 60 | 1014.8 |
| 20260904192101 | 96 | 261 | 4.0 | 5.0 | 0.00 | 0.00 | 0.00 | 58 | 1014.4 |
| 20260904191558 | 96 | 242 | 4.0 | 5.0 | 0.00 | 0.00 | 0.00 | 59 | 1014.7 |
| 20260904191054 | 96 | 229 | 0.0 | 1.0 | 0.00 | 0.00 | 0.00 | 58 | 1014.6 |
| 20260904190549 | 96 | 237 | 1.0 | 2.0 | 0.00 | 0.00 | 0.00 | 61 | 1015.0 |
| 20260904190046 | 96 | 218 | 1.0 | 1.0 | 0.00 | 0.00 | 0.00 | 62 | 1014.7 |
| 20260904185542 | 96 | 298 | 2.0 | 3.0 | 0.00 | 0.00 | 0.00 | 60 | 1015.2 |
| 20260904185036 | 96 | 213 | 1.0 | 2.0 | 0.00 | 0.00 | 0.00 | 61 | 1015.2 |
| 20260904184530 | 95 | 249 | 3.0 | 5.0 | 0.00 | 0.00 | 0.00 | 59 | 1015.1 |
| 20260904184026 | 95 | 220 | 0.0 | 1.0 | 0.00 | 0.00 | 0.00 | 59 | 1015.4 |
| 20260904183521 | 95 | 224 | 0.0 | 1.0 | 0.00 | 0.00 | 0.00 | 61 | 1015.5 |
| 20260904183016 | 95 | 212 | 1.0 | 1.0 | 0.00 | 0.00 | 0.00 | 60 | 1015.4 |
| 20260904182512 | 95 | 209 | 0.0 | 1.0 | 0.00 | 0.00 | 0.00 | 59 | 1015.3 |
| 20260904182012 | 95 | 253 | 1.0 | 1.0 | 0.00 | 0.00 | 0.00 | 60 | 1015.4 |
| 20260904181507 | 96 | 229 | 2.0 | 2.0 | 0.00 | 0.00 | 0.00 | 61 | 1015.4 |
| 20260904181002 | 96 | 256 | 3.0 | 3.0 | 0.00 | 0.00 | 0.00 | 60 | 1015.5 |
| 20260904180456 | 95 | 201 | 1.0 | 1.0 | 0.00 | 0.00 | 0.00 | 59 | 1015.1 |
| 20260904175956 | 95 | 258 | 1.0 | 1.0 | 0.00 | 0.00 | 0.00 | 61 | 1015.5 |
| 20260904175456 | 94 | 255 | 4.0 | 5.0 | 0.00 | 0.00 | 0.00 | 63 | 1015.3 |
| 20260904174949 | 94 | 219 | 1.0 | 1.0 | 0.00 | 0.00 | 0.00 | 63 | 1015.5 |
| 20260904174445 | 95 | 232 | 1.0 | 1.0 | 0.00 | 0.00 | 0.00 | 63 | 1015.4 |
| 20260904173941 | 95 | 217 | 0.0 | 0.0 | 0.00 | 0.00 | 0.00 | 64 | 1015.8 |
| 20260904173441 | 95 | 251 | 2.0 | 3.0 | 0.00 | 0.00 | 0.00 | 62 | 1015.5 |
| 20260904172931 | 94 | 205 | 2.0 | 2.0 | 0.00 | 0.00 | 0.00 | 64 | 1015.4 |
| 20260904172426 | 94 | 240 | 1.0 | 2.0 | 0.00 | 0.00 | 0.00 | 64 | 1015.5 |
| 20260904171921 | 93 | 219 | 1.0 | 2.0 | 0.00 | 0.00 | 0.00 | 65 | 1015.5 |
| 20260904171416 | 93 | 218 | 1.0 | 1.0 | 0.00 | 0.00 | 0.00 | 65 | 1015.7 |
| 20260904170912 | 94 | 229 | 1.0 | 1.0 | 0.00 | 0.00 | 0.00 | 63 | 1015.6 |
| 20260904170407 | 95 | 219 | 1.0 | 1.0 | 0.00 | 0.00 | 0.00 | 67 | 1015.8 |
| 20260904165903 | 93 | 214 | 1.0 | 1.0 | 0.00 | 0.00 | 0.00 | 66 | 1015.7 |
| 20260904165401 | 93 | 209 | 0.0 | 0.0 | 0.00 | 0.00 | 0.00 | 64 | 1015.5 |
| 20260904164901 | 93 | 232 | 3.0 | 5.0 | 0.00 | 0.00 | 0.00 | 63 | 1015.9 |
| 20260904164400 | 93 | 238 | 0.0 | 1.0 | 0.00 | 0.00 | 0.00 | 65 | 1015.7 |
| 20260904163857 | 92 | 216 | 1.0 | 2.0 | 0.00 | 0.00 | 0.00 | 65 | 1015.6 |
| 20260904163356 | 93 | 246 | 2.0 | 2.0 | 0.00 | 0.00 | 0.00 | 67 | 1015.6 |
| 20260904162856 | 93 | 242 | 3.0 | 5.0 | 0.00 | 0.00 | 0.00 | 65 | 1015.5 |
| 20260904162352 | 93 | 214 | 1.0 | 1.0 | 0.00 | 0.00 | 0.00 | 67 | 1015.6 |
| 20260904161847 | 92 | 221 | 0.0 | 0.0 | 0.00 | 0.00 | 0.00 | 66 | 1015.8 |
| 20260904161342 | 91 | 241 | 3.0 | 3.0 | 0.00 | 0.00 | 0.00 | 65 | 1015.5 |
| 20260904160838 | 92 | 357 | 1.0 | 2.0 | 0.00 | 0.00 | 0.00 | 65 | 1015.5 |
| 20260904160333 | 92 | 237 | 1.0 | 2.0 | 0.00 | 0.00 | 0.00 | 65 | 1015.7 |
| 20260904155828 | 93 | 174 | 1.0 | 1.0 | 0.00 | 0.00 | 0.00 | 64 | 1015.5 |
| 20260904155322 | 92 | 211 | 1.0 | 1.0 | 0.00 | 0.00 | 0.00 | 67 | 1015.8 |
| 20260904154821 | 92 | 234 | 0.0 | 1.0 | 0.00 | 0.00 | 0.00 | 66 | 1015.4 |
| 20260904154316 | 91 | 234 | 2.0 | 2.0 | 0.00 | 0.00 | 0.00 | 66 | 1015.7 |
| 20260904153812 | 91 | 236 | 1.0 | 1.0 | 0.00 | 0.00 | 0.00 | 66 | 1015.4 |
| 20260904153307 | 91 | 238 | 2.0 | 2.0 | 0.00 | 0.00 | 0.00 | 68 | 1015.7 |
| 20260904152803 | 90 | 215 | 0.0 | 1.0 | 0.00 | 0.00 | 0.00 | 68 | 1015.5 |
| 20260904152258 | 91 | 244 | 4.0 | 6.0 | 0.00 | 0.00 | 0.00 | 67 | 1015.5 |
| 20260904151753 | 91 | 220 | 0.0 | 1.0 | 0.00 | 0.00 | 0.00 | 70 | 1015.4 |
| 20260904151252 | 89 | 195 | 0.0 | 0.0 | 0.00 | 0.00 | 0.00 | 68 | 1015.4 |
| 20260904150748 | 89 | 236 | 3.0 | 3.0 | 0.00 | 0.00 | 0.00 | 69 | 1015.6 |
| 20260904150243 | 89 | 143 | 1.0 | 2.0 | 0.00 | 0.00 | 0.00 | 70 | 1015.5 |
| 20260904145741 | 88 | 221 | 1.0 | 2.0 | 0.00 | 0.00 | 0.00 | 70 | 1015.4 |
| 20260904145237 | 88 | 218 | 1.0 | 1.0 | 0.00 | 0.00 | 0.00 | 71 | 1015.3 |
| 20260904144732 | 88 | 238 | 2.0 | 3.0 | 0.00 | 0.00 | 0.00 | 70 | 1015.3 |
| 20260904144228 | 87 | 207 | 0.0 | 0.0 | 0.00 | 0.00 | 0.00 | 72 | 1015.4 |
| 20260904143723 | 87 | 245 | 2.0 | 3.0 | 0.00 | 0.00 | 0.00 | 73 | 1015.4 |
| 20260904143220 | 87 | 226 | 1.0 | 1.0 | 0.00 | 0.00 | 0.00 | 73 | 1015.2 |
| 20260904142716 | 87 | 239 | 3.0 | 5.0 | 0.00 | 0.00 | 0.00 | 72 | 1015.1 |
| 20260904142212 | 87 | 233 | 1.0 | 2.0 | 0.00 | 0.00 | 0.00 | 71 | 1015.0 |
| 20260904141711 | 87 | 239 | 2.0 | 2.0 | 0.00 | 0.00 | 0.00 | 72 | 1014.8 |
| 20260904141207 | 87 | 240 | 3.0 | 3.0 | 0.00 | 0.00 | 0.00 | 73 | 1015.1 |
| 20260904140702 | 86 | 214 | 1.0 | 2.0 | 0.00 | 0.00 | 0.00 | 73 | 1015.0 |
| 20260904140157 | 86 | 226 | 1.0 | 1.0 | 0.00 | 0.00 | 0.00 | 75 | 1014.7 |
| 20260904135656 | 85 | 211 | 1.0 | 2.0 | 0.00 | 0.00 | 0.00 | 76 | 1014.7 |
| 20260904135152 | 85 | 216 | 2.0 | 2.0 | 0.00 | 0.00 | 0.00 | 76 | 1015.1 |
| 20260904134648 | 85 | 205 | 0.0 | 0.0 | 0.00 | 0.00 | 0.00 | 78 | 1015.0 |
| 20260904134147 | 84 | 230 | 1.0 | 2.0 | 0.00 | 0.00 | 0.00 | 78 | 1014.7 |
| 20260904133642 | 84 | 217 | 1.0 | 1.0 | 0.00 | 0.00 | 0.00 | 78 | 1015.1 |
| 20260904133137 | 84 | 210 | 0.0 | 1.0 | 0.00 | 0.00 | 0.00 | 76 | 1014.8 |
| 20260904132637 | 84 | 217 | 1.0 | 1.0 | 0.00 | 0.00 | 0.00 | 78 | 1014.7 |
| 20260904132132 | 82 | 214 | 0.0 | 0.0 | 0.00 | 0.00 | 0.00 | 81 | 1014.7 |
| 20260904131632 | 83 | 212 | 0.0 | 0.0 | 0.00 | 0.00 | 0.00 | 80 | 1014.8 |
| 20260904131128 | 82 | 214 | 0.0 | 0.0 | 0.00 | 0.00 | 0.00 | 81 | 1014.5 |
| 20260904130627 | 80 | 214 | 0.0 | 0.0 | 0.00 | 0.00 | 0.00 | 83 | 1014.6 |
| 20260904130122 | 80 | 218 | 0.0 | 0.0 | 0.00 | 0.00 | 0.00 | 85 | 1014.6 |
| 20260904125618 | 78 | 207 | 0.0 | 0.0 | 0.00 | 0.00 | 0.00 | 88 | 1014.4 |
| 20260904125113 | 77 | 211 | 0.0 | 0.0 | 0.00 | 0.00 | 0.00 | 91 | 1014.3 |
| 20260904124608 | 76 | 219 | 0.0 | 0.0 | 0.00 | 0.00 | 0.00 | 92 | 1014.6 |
| 20260904124103 | 76 | 220 | 0.0 | 0.0 | 0.00 | 0.00 | 0.00 | 93 | 1014.5 |
| 20260904123558 | 75 | 220 | 0.0 | 0.0 | 0.00 | 0.00 | 0.00 | 94 | 1014.3 |
| 20260904123053 | 75 | 220 | 0.0 | 0.0 | 0.00 | 0.00 | 0.00 | 95 | 1014.1 |
| 20260904122548 | 75 | 220 | 0.0 | 0.0 | 0.00 | 0.00 | 0.00 | 95 | 1014.4 |
| 20260904122043 | 75 | 220 | 0.0 | 0.0 | 0.00 | 0.00 | 0.00 | 95 | 1014.4 |
| 20260904121538 | 74 | 220 | 0.0 | 0.0 | 0.00 | 0.00 | 0.00 | 95 | 1014.3 |
| 20260904121034 | 74 | 220 | 0.0 | 0.0 | 0.00 | 0.00 | 0.00 | 96 | 1014.4 |
| 20260904120530 | 74 | 220 | 0.0 | 0.0 | 0.00 | 0.00 | 0.00 | 96 | 1014.2 |
| 20260904120026 | 74 | 220 | 0.0 | 0.0 | 0.00 | 0.00 | 0.00 | 96 | 1014.3 |
| 20260904115521 | 74 | 220 | 0.0 | 0.0 | 0.00 | 0.00 | 0.00 | 96 | 1014.4 |
| 20260904115021 | 74 | 220 | 0.0 | 0.0 | 0.00 | 0.00 | 0.00 | 96 | 1014.3 |
| 20260904114516 | 73 | 220 | 0.0 | 0.0 | 0.00 | 0.00 | 0.00 | 97 | 1014.3 |
| 20260904114010 | 73 | 220 | 0.0 | 0.0 | 0.00 | 0.00 | 0.00 | 97 | 1014.1 |
| 20260904113510 | 74 | 220 | 0.0 | 0.0 | 0.00 | 0.00 | 0.00 | 96 | 1014.0 |
| 20260904113004 | 74 | 220 | 0.0 | 0.0 | 0.00 | 0.00 | 0.00 | 96 | 1014.0 |
| 20260904112459 | 73 | 220 | 0.0 | 0.0 | 0.00 | 0.00 | 0.00 | 97 | 1014.1 |
| 20260904111955 | 74 | 220 | 0.0 | 0.0 | 0.00 | 0.00 | 0.00 | 97 | 1013.9 |
| 20260904111450 | 74 | 220 | 0.0 | 0.0 | 0.00 | 0.00 | 0.00 | 97 | 1013.8 |
| 20260904110946 | 74 | 220 | 0.0 | 0.0 | 0.00 | 0.00 | 0.00 | 97 | 1013.7 |
| 20260904110445 | 74 | 219 | 0.0 | 0.0 | 0.00 | 0.00 | 0.00 | 97 | 1013.8 |
| 20260904105940 | 74 | 219 | 0.0 | 0.0 | 0.00 | 0.00 | 0.00 | 97 | 1013.9 |
| 20260904105435 | 74 | 219 | 0.0 | 0.0 | 0.00 | 0.00 | 0.00 | 97 | 1013.9 |
| 20260904104931 | 74 | 217 | 0.0 | 0.0 | 0.00 | 0.00 | 0.00 | 97 | 1014.1 |
| 20260904104430 | 74 | 217 | 0.0 | 0.0 | 0.00 | 0.00 | 0.00 | 97 | 1014.0 |
| 20260904103927 | 74 | 217 | 0.0 | 0.0 | 0.00 | 0.00 | 0.00 | 96 | 1014.1 |
| 20260904103422 | 74 | 217 | 0.0 | 0.0 | 0.00 | 0.00 | 0.00 | 96 | 1014.2 |
| 20260904102919 | 74 | 217 | 0.0 | 0.0 | 0.00 | 0.00 | 0.00 | 96 | 1014.1 |
| 20260904102414 | 74 | 216 | 0.0 | 0.0 | 0.00 | 0.00 | 0.00 | 96 | 1014.1 |
| 20260904101909 | 74 | 216 | 0.0 | 0.0 | 0.00 | 0.00 | 0.00 | 96 | 1014.1 |
| 20260904101406 | 74 | 211 | 0.0 | 0.0 | 0.00 | 0.00 | 0.00 | 96 | 1013.9 |
| 20260904100901 | 74 | 211 | 0.0 | 0.0 | 0.00 | 0.00 | 0.00 | 95 | 1013.9 |
| 20260904100357 | 74 | 211 | 0.0 | 0.0 | 0.00 | 0.00 | 0.00 | 95 | 1013.8 |
| 20260904095857 | 75 | 211 | 0.0 | 0.0 | 0.00 | 0.00 | 0.00 | 95 | 1013.7 |
| 20260904095352 | 75 | 211 | 0.0 | 0.0 | 0.00 | 0.00 | 0.00 | 94 | 1014.0 |
| 20260904094846 | 75 | 211 | 0.0 | 0.0 | 0.00 | 0.00 | 0.00 | 94 | 1013.6 |
| 20260904094342 | 75 | 211 | 0.0 | 0.0 | 0.00 | 0.00 | 0.00 | 93 | 1013.7 |
| 20260904093838 | 75 | 212 | 0.0 | 0.0 | 0.00 | 0.00 | 0.00 | 93 | 1013.5 |
| 20260904093338 | 75 | 212 | 0.0 | 0.0 | 0.00 | 0.00 | 0.00 | 93 | 1013.6 |
| 20260904092833 | 75 | 212 | 0.0 | 0.0 | 0.00 | 0.00 | 0.00 | 93 | 1013.5 |
| 20260904092330 | 75 | 212 | 0.0 | 0.0 | 0.00 | 0.00 | 0.00 | 93 | 1013.4 |
| 20260904091825 | 75 | 212 | 0.0 | 0.0 | 0.00 | 0.00 | 0.00 | 92 | 1013.3 |
| 20260904091321 | 76 | 213 | 0.0 | 0.0 | 0.00 | 0.00 | 0.00 | 92 | 1013.2 |
| 20260904090815 | 76 | 215 | 0.0 | 0.0 | 0.00 | 0.00 | 0.00 | 92 | 1013.3 |
| 20260904090312 | 76 | 215 | 0.0 | 0.0 | 0.00 | 0.00 | 0.00 | 91 | 1013.4 |
| 20260904085807 | 77 | 215 | 0.0 | 0.0 | 0.00 | 0.00 | 0.00 | 89 | 1013.2 |
| 20260904085305 | 77 | 215 | 0.0 | 0.0 | 0.00 | 0.00 | 0.00 | 89 | 1013.1 |
| 20260904084756 | 77 | 219 | 0.0 | 0.0 | 0.00 | 0.00 | 0.00 | 89 | 1013.4 |
| 20260904084252 | 77 | 216 | 0.0 | 0.0 | 0.00 | 0.00 | 0.00 | 89 | 1013.0 |
| 20260904083748 | 76 | 212 | 0.0 | 0.0 | 0.00 | 0.00 | 0.00 | 90 | 1013.0 |
| 20260904083245 | 76 | 217 | 0.0 | 0.0 | 0.00 | 0.00 | 0.00 | 91 | 1013.2 |
| 20260904082745 | 75 | 216 | 1.0 | 1.0 | 0.00 | 0.00 | 0.00 | 94 | 1013.1 |
| 20260904082239 | 74 | 213 | 0.0 | 0.0 | 0.00 | 0.00 | 0.00 | 97 | 1013.4 |
| 20260904081735 | 74 | 213 | 0.0 | 0.0 | 0.00 | 0.00 | 0.00 | 97 | 1013.3 |
| 20260904081231 | 74 | 213 | 0.0 | 0.0 | 0.00 | 0.00 | 0.00 | 97 | 1012.9 |
| 20260904080726 | 75 | 213 | 0.0 | 0.0 | 0.00 | 0.00 | 0.00 | 97 | 1013.3 |
| 20260904080222 | 74 | 213 | 0.0 | 0.0 | 0.00 | 0.00 | 0.00 | 97 | 1013.2 |
| 20260904075718 | 75 | 213 | 0.0 | 0.0 | 0.00 | 0.00 | 0.00 | 96 | 1013.2 |
| 20260904075212 | 75 | 213 | 0.0 | 0.0 | 0.00 | 0.00 | 0.00 | 96 | 1013.4 |
| 20260904074706 | 75 | 213 | 0.0 | 0.0 | 0.00 | 0.00 | 0.00 | 96 | 1013.5 |
| 20260904074201 | 75 | 213 | 0.0 | 0.0 | 0.00 | 0.00 | 0.00 | 96 | 1013.4 |
| 20260904073656 | 75 | 213 | 0.0 | 0.0 | 0.00 | 0.00 | 0.00 | 95 | 1013.6 |
| 20260904073152 | 75 | 213 | 0.0 | 0.0 | 0.00 | 0.00 | 0.00 | 95 | 1013.5 |
| 20260904072648 | 76 | 213 | 0.0 | 0.0 | 0.00 | 0.00 | 0.00 | 95 | 1013.8 |
| 20260904072142 | 76 | 213 | 0.0 | 0.0 | 0.00 | 0.00 | 0.00 | 94 | 1013.5 |
| 20260904071638 | 76 | 213 | 0.0 | 0.0 | 0.00 | 0.00 | 0.00 | 93 | 1013.6 |
| 20260904071133 | 76 | 213 | 0.0 | 0.0 | 0.00 | 0.00 | 0.00 | 92 | 1013.7 |
| 20260904070632 | 77 | 213 | 0.0 | 0.0 | 0.00 | 0.00 | 0.00 | 91 | 1013.6 |
| 20260904070127 | 77 | 213 | 0.0 | 0.0 | 0.00 | 0.00 | 0.00 | 91 | 1013.8 |
| 20260904065626 | 78 | 213 | 0.0 | 0.0 | 0.00 | 0.00 | 0.00 | 89 | 1013.8 |
| 20260904065124 | 78 | 213 | 0.0 | 0.0 | 0.00 | 0.00 | 0.00 | 86 | 1013.8 |
| 20260904064618 | 78 | 213 | 0.0 | 0.0 | 0.00 | 0.00 | 0.00 | 86 | 1013.8 |
| 20260904064113 | 78 | 215 | 0.0 | 0.0 | 0.00 | 0.00 | 0.00 | 86 | 1013.9 |
| 20260904063609 | 78 | 213 | 0.0 | 0.0 | 0.00 | 0.00 | 0.00 | 86 | 1013.9 |
| 20260904063104 | 78 | 213 | 0.0 | 0.0 | 0.00 | 0.00 | 0.00 | 87 | 1013.9 |
| 20260904062600 | 77 | 214 | 0.0 | 0.0 | 0.00 | 0.00 | 0.00 | 88 | 1013.9 |
| 20260904062056 | 77 | 211 | 0.0 | 0.0 | 0.00 | 0.00 | 0.00 | 90 | 1013.7 |
| 20260904061551 | 77 | 211 | 0.0 | 0.0 | 0.00 | 0.00 | 0.00 | 91 | 1014.0 |
| 20260904061048 | 76 | 211 | 0.0 | 0.0 | 0.00 | 0.00 | 0.00 | 94 | 1013.9 |
| 20260904060544 | 76 | 211 | 0.0 | 0.0 | 0.00 | 0.00 | 0.00 | 96 | 1013.6 |
| 20260904060039 | 76 | 211 | 0.0 | 0.0 | 0.00 | 0.00 | 0.00 | 97 | 1013.8 |
| 20260904055534 | 76 | 211 | 0.0 | 0.0 | 0.00 | 0.00 | 0.00 | 97 | 1013.8 |
| 20260904055030 | 76 | 211 | 0.0 | 0.0 | 0.00 | 0.00 | 0.00 | 97 | 1014.2 |
| 20260904054525 | 76 | 211 | 0.0 | 0.0 | 0.00 | 0.00 | 0.00 | 96 | 1014.0 |
| 20260904054021 | 77 | 211 | 0.0 | 0.0 | 0.00 | 0.00 | 0.00 | 96 | 1013.8 |
| 20260904053520 | 77 | 211 | 0.0 | 0.0 | 0.00 | 0.00 | 0.00 | 96 | 1014.0 |
| 20260904053016 | 77 | 211 | 0.0 | 0.0 | 0.00 | 0.00 | 0.00 | 96 | 1013.9 |
| 20260904052512 | 77 | 211 | 0.0 | 0.0 | 0.00 | 0.00 | 0.00 | 96 | 1014.0 |
| 20260904052008 | 77 | 211 | 0.0 | 0.0 | 0.00 | 0.00 | 0.00 | 96 | 1014.0 |
| 20260904051505 | 77 | 211 | 0.0 | 0.0 | 0.00 | 0.00 | 0.00 | 96 | 1013.8 |
| 20260904051003 | 77 | 211 | 0.0 | 0.0 | 0.00 | 0.00 | 0.00 | 96 | 1013.9 |
| 20260904050500 | 77 | 211 | 0.0 | 0.0 | 0.00 | 0.00 | 0.00 | 96 | 1013.8 |
| 20260904045955 | 77 | 211 | 0.0 | 0.0 | 0.00 | 0.00 | 0.00 | 95 | 1013.8 |
| 20260904045450 | 77 | 211 | 0.0 | 0.0 | 0.00 | 0.00 | 0.00 | 96 | 1013.7 |
| 20260904044944 | 77 | 211 | 0.0 | 0.0 | 0.00 | 0.00 | 0.00 | 95 | 1013.9 |
| 20260904044441 | 77 | 211 | 0.0 | 0.0 | 0.00 | 0.00 | 0.00 | 95 | 1014.0 |
| 20260904043937 | 77 | 211 | 0.0 | 0.0 | 0.00 | 0.00 | 0.00 | 95 | 1013.8 |
| 20260904043433 | 78 | 211 | 0.0 | 0.0 | 0.00 | 0.00 | 0.00 | 94 | 1014.0 |
| 20260904042929 | 78 | 211 | 0.0 | 0.0 | 0.00 | 0.00 | 0.00 | 94 | 1013.9 |
| 20260904042425 | 78 | 211 | 0.0 | 0.0 | 0.00 | 0.00 | 0.00 | 94 | 1013.6 |
| 20260904041919 | 78 | 211 | 0.0 | 0.0 | 0.00 | 0.00 | 0.00 | 94 | 1013.9 |
| 20260904041416 | 79 | 211 | 0.0 | 0.0 | 0.00 | 0.00 | 0.00 | 94 | 1013.6 |
| 20260904040912 | 79 | 211 | 0.0 | 0.0 | 0.00 | 0.00 | 0.00 | 93 | 1013.6 |
| 20260904040406 | 79 | 211 | 0.0 | 0.0 | 0.00 | 0.00 | 0.00 | 93 | 1013.5 |
| 20260904035902 | 79 | 211 | 0.0 | 0.0 | 0.00 | 0.00 | 0.00 | 92 | 1013.7 |
| 20260904035358 | 79 | 211 | 0.0 | 0.0 | 0.00 | 0.00 | 0.00 | 93 | 1013.6 |
| 20260904034856 | 79 | 211 | 0.0 | 0.0 | 0.00 | 0.00 | 0.00 | 92 | 1013.7 |
| 20260904034347 | 79 | 211 | 0.0 | 0.0 | 0.00 | 0.00 | 0.00 | 92 | 1013.5 |
| 20260904033843 | 79 | 211 | 0.0 | 0.0 | 0.00 | 0.00 | 0.00 | 91 | 1013.7 |
| 20260904033339 | 79 | 211 | 0.0 | 0.0 | 0.00 | 0.00 | 0.00 | 91 | 1013.7 |
| 20260904032835 | 80 | 211 | 0.0 | 0.0 | 0.00 | 0.00 | 0.00 | 90 | 1013.6 |
| 20260904032335 | 80 | 211 | 0.0 | 0.0 | 0.00 | 0.00 | 0.00 | 90 | 1013.4 |
| 20260904031828 | 80 | 211 | 0.0 | 0.0 | 0.00 | 0.00 | 0.00 | 89 | 1013.5 |
| 20260904031324 | 81 | 211 | 0.0 | 0.0 | 0.00 | 0.00 | 0.00 | 88 | 1013.2 |
| 20260904030820 | 81 | 211 | 0.0 | 0.0 | 0.00 | 0.00 | 0.00 | 88 | 1013.5 |
| 20260904030315 | 81 | 211 | 0.0 | 0.0 | 0.00 | 0.00 | 0.00 | 88 | 1013.3 |
| 20260904025811 | 82 | 211 | 0.0 | 0.0 | 0.00 | 0.00 | 0.00 | 88 | 1013.4 |
| 20260904025307 | 82 | 211 | 0.0 | 0.0 | 0.00 | 0.00 | 0.00 | 85 | 1013.2 |
| 20260904024807 | 82 | 211 | 0.0 | 0.0 | 0.00 | 0.00 | 0.00 | 85 | 1013.3 |
| 20260904024302 | 82 | 211 | 0.0 | 0.0 | 0.00 | 0.00 | 0.00 | 85 | 1013.2 |
| 20260904023758 | 83 | 211 | 0.0 | 0.0 | 0.00 | 0.00 | 0.00 | 83 | 1013.2 |
| 20260904023254 | 82 | 216 | 0.0 | 0.0 | 0.00 | 0.00 | 0.00 | 83 | 1013.0 |
| 20260904022753 | 82 | 208 | 0.0 | 0.0 | 0.00 | 0.00 | 0.00 | 85 | 1013.0 |
| 20260904022250 | 82 | 214 | 0.0 | 0.0 | 0.00 | 0.00 | 0.00 | 88 | 1012.8 |
| 20260904021746 | 83 | 214 | 0.0 | 0.0 | 0.00 | 0.00 | 0.00 | 87 | 1013.0 |
| 20260904021241 | 83 | 214 | 0.0 | 0.0 | 0.00 | 0.00 | 0.00 | 83 | 1013.0 |
| 20260904020737 | 82 | 217 | 0.0 | 0.0 | 0.00 | 0.00 | 0.00 | 85 | 1012.9 |
| 20260904020236 | 82 | 217 | 0.0 | 0.0 | 0.00 | 0.00 | 0.00 | 87 | 1012.9 |
| 20260904015735 | 82 | 217 | 0.0 | 0.0 | 0.00 | 0.00 | 0.00 | 89 | 1012.8 |
| 20260904015231 | 82 | 217 | 0.0 | 0.0 | 0.00 | 0.00 | 0.00 | 91 | 1012.9 |
| 20260904014729 | 82 | 217 | 0.0 | 0.0 | 0.00 | 0.00 | 0.00 | 90 | 1012.8 |
| 20260904014224 | 82 | 217 | 0.0 | 0.0 | 0.00 | 0.00 | 0.00 | 90 | 1012.8 |
| 20260904013720 | 82 | 217 | 0.0 | 0.0 | 0.00 | 0.00 | 0.00 | 89 | 1012.8 |
| 20260904013216 | 82 | 217 | 0.0 | 0.0 | 0.00 | 0.00 | 0.00 | 89 | 1012.6 |
| 20260904012712 | 82 | 217 | 0.0 | 0.0 | 0.00 | 0.00 | 0.00 | 90 | 1012.8 |
| 20260904012210 | 83 | 217 | 0.0 | 0.0 | 0.00 | 0.00 | 0.00 | 91 | 1012.9 |
| 20260904011705 | 83 | 217 | 0.0 | 0.0 | 0.00 | 0.00 | 0.00 | 91 | 1012.7 |
| 20260904011201 | 83 | 217 | 0.0 | 0.0 | 0.00 | 0.00 | 0.00 | 89 | 1012.4 |
| 20260904010655 | 83 | 217 | 0.0 | 0.0 | 0.00 | 0.00 | 0.00 | 89 | 1012.7 |
| 20260904010152 | 83 | 217 | 0.0 | 0.0 | 0.00 | 0.00 | 0.00 | 89 | 1012.6 |
| 20260904005647 | 84 | 217 | 0.0 | 0.0 | 0.00 | 0.00 | 0.00 | 88 | 1012.5 |
| 20260904005142 | 84 | 217 | 0.0 | 0.0 | 0.00 | 0.00 | 0.00 | 88 | 1012.7 |